VZLUSAT-1 (42790 NORAD) Tracking and Keplerian Element Data

This shows tracking and keplerian element data for the satellite.

Feedback or suggestion? Click here.




ElementValue
Catalog42790
NameVZLUSAT-1
Epoch Orbit9243
Epoch Day52.3525804
Epoch Year2019
RAAN113.1485
Inclination97.3693
Eccentricity0.0009538
Argument of Perigee283.1707
Mean Anonmoly76.8466
Mean Motion15.23042969
Decay Rate1.532E-05
L11 42790U 17036AB 19052.35258040 .00001532 00000-0 67993-4 0 9992
L22 42790 97.3693 113.1485 0009538 283.1707 76.8466 15.23042969 92433

Live tracking and technical data element details for VZLUSAT-1 (NORAD 42790). VZLUSAT-1 can be tracked NOW for your location showing map with azimuth and elevation plus other details from your city location.

Track the satellite on the map from your city or location and see movement details for azimuth, elevation, latitude, longitude, range, height, and movement on the map or in text.







IsCatalogInMostPopularTable: catalog: 42790, numindb: 175
Update: records affected: 1



GetName: 42790 VZLUSAT-1

Hit Count: updated at: Fri, 22 Feb 2019 22:53:57 GMT